Weather History for Shawnee, OK

Change the Weather History Date:

Wednesday, May 1, 2013

  Actual Average (KTIK) Record (KTIK)
Temperature  
Mean Temperature 70 °F -  
Max Temperature 86 °F 72 °F 91 °F (2002)
Min Temperature 53 °F 52 °F 41 °F (2011)
Cooling Degree Days 4    
Growing Degree Days 20 (Base 50)    
Moisture  
Dew Point 64 °F    
Average Humidity 79    
Maximum Humidity 100    
Minimum Humidity 48    
Precipitation  
Precipitation 0.00 in - - ()
Sea Level Pressure  
Sea Level Pressure 29.92 in    
Wind  
Wind Speed 11 mph (SSE)    
Max Wind Speed 21 mph    
Max Gust Speed 26 mph    
Visibility 10 miles    
Events Rain , Thunderstorm    
Averages and records for this station are not official NWS values.
T = Trace of Precipitation, MM = Missing Value Source: NWS Daily Summary

Daily Weather History Graph

Daily Weather History Graph

Search for Another Location

Airport:

Trip Planner

Search our weather history database for the weather conditions in past years. The results will help you decide how hot, cold, wet, or windy it might be!

Date:

Astronomy

May. 01, 2013 Rise Set
Actual Time 6:36 AM CDT 8:14 PM CDT
Civil Twilight 6:08 AM CDT 8:41 PM CDT
Nautical Twilight 5:36 AM CDT 9:14 PM CDT
Astronomical Twilight 5:01 AM CDT 9:48 PM CDT
Moon 1:24 AM CDT (5/1) 12:15 PM CDT (5/1)
Length of Visible Light 14h 32m
Length of Day
13h 38m
Waning Gibbous, 59% of the Moon is Illuminated
May 1
Waning Gibbous
May 2
Last Quarter
May 9
New
May 17
First Quarter
May 24
Full

Hourly Weather History & Observations

Time (CDT) Temp. Heat Index Dew Point Humidity Pressure Visibility Wind Dir Wind Speed Gust Speed Precip Events Conditions
12:15 AM 71.6 °F - 62.6 °F 73% 29.83 in 10.0 mi SSE 8.1 mph - N/A   Clear
12:55 AM 71.6 °F - 62.6 °F 73% 29.84 in 10.0 mi SSE 10.4 mph - N/A   Clear
1:15 AM 71.6 °F - 62.6 °F 73% 29.84 in 10.0 mi SSE 12.7 mph - N/A   Clear
1:35 AM 71.6 °F - 62.6 °F 73% 29.84 in 10.0 mi SSE 12.7 mph - N/A   Clear
1:55 AM 71.6 °F - 64.4 °F 78% 29.83 in 10.0 mi SSE 11.5 mph - N/A   Clear
2:15 AM 68.0 °F - 62.6 °F 83% 29.83 in 10.0 mi SSE 10.4 mph - N/A   Clear
2:35 AM 68.0 °F - 62.6 °F 83% 29.82 in 10.0 mi SSE 12.7 mph 18.4 mph N/A   Clear
2:55 AM 68.0 °F - 64.4 °F 88% 29.82 in 10.0 mi SSE 11.5 mph 23.0 mph N/A   Clear
3:15 AM 68.0 °F - 64.4 °F 88% 29.82 in 10.0 mi South 13.8 mph - N/A   Clear
3:35 AM 68.0 °F - 64.4 °F 88% 29.82 in 10.0 mi SSE 10.4 mph 16.1 mph N/A   Clear
3:55 AM 68.0 °F - 64.4 °F 88% 29.81 in 10.0 mi SSE 11.5 mph - N/A   Clear
4:15 AM 68.0 °F - 66.2 °F 94% 29.81 in 10.0 mi SSE 10.4 mph - N/A   Clear
4:35 AM 68.0 °F - 64.4 °F 88% 29.81 in 10.0 mi SSE 10.4 mph - N/A   Clear
4:55 AM 66.2 °F - 64.4 °F 94% 29.82 in 10.0 mi SE 10.4 mph - N/A   Clear
5:15 AM 64.4 °F - 64.4 °F 100% 29.81 in 10.0 mi SE 12.7 mph - N/A   Clear
5:35 AM 64.4 °F - 64.4 °F 100% 29.81 in 10.0 mi SE 13.8 mph 17.3 mph N/A   Clear
5:55 AM 64.4 °F - 64.4 °F 100% 29.81 in 10.0 mi SSE 12.7 mph - N/A   Clear
6:15 AM 64.4 °F - 64.4 °F 100% 29.82 in 10.0 mi SSE 11.5 mph - N/A   Clear
6:35 AM 64.4 °F - 64.4 °F 100% 29.82 in 10.0 mi SSE 12.7 mph 18.4 mph N/A   Clear
6:55 AM 64.4 °F - 64.4 °F 100% 29.82 in 7.0 mi SSE 13.8 mph 18.4 mph N/A   Clear
7:15 AM 64.4 °F - 64.4 °F 100% 29.84 in 7.0 mi SSE 10.4 mph - N/A   Scattered Clouds
7:35 AM 64.4 °F - 64.4 °F 100% 29.84 in 7.0 mi SSE 13.8 mph 21.9 mph N/A   Overcast
7:55 AM 64.4 °F - 64.4 °F 100% 29.85 in 7.0 mi SSE 11.5 mph 19.6 mph N/A   Overcast
8:15 AM 66.2 °F - 64.4 °F 94% 29.86 in 10.0 mi SSE 15.0 mph 18.4 mph N/A   Overcast
8:35 AM 66.2 °F - 66.2 °F 100% 29.87 in 10.0 mi South 11.5 mph - N/A   Overcast
8:55 AM 68.0 °F - 68.0 °F 100% 29.89 in 10.0 mi South 10.4 mph 16.1 mph N/A   Overcast
9:15 AM 68.0 °F - 68.0 °F 100% 29.90 in 10.0 mi South 12.7 mph - N/A   Overcast
9:35 AM 68.0 °F - 66.2 °F 94% 29.91 in 10.0 mi SSE 12.7 mph 16.1 mph N/A   Overcast
9:55 AM 71.6 °F - 68.0 °F 88% 29.92 in 10.0 mi South 9.2 mph 17.3 mph N/A   Overcast
10:15 AM 71.6 °F - 68.0 °F 88% 29.92 in 10.0 mi South 11.5 mph - N/A   Overcast
10:35 AM 71.6 °F - 68.0 °F 88% 29.93 in 10.0 mi SSE 10.4 mph 16.1 mph N/A   Overcast
10:55 AM 71.6 °F - 68.0 °F 88% 29.94 in 10.0 mi South 6.9 mph 10.4 mph N/A   Overcast
11:15 AM 73.4 °F - 68.0 °F 83% 29.96 in 10.0 mi SSE 6.9 mph - N/A   Overcast
11:35 AM 77.0 °F - 69.8 °F 78% 29.97 in 10.0 mi SSE 9.2 mph 17.3 mph N/A   Mostly Cloudy
11:55 AM 77.0 °F - 69.8 °F 78% 29.96 in 10.0 mi SSE 10.4 mph - N/A   Mostly Cloudy
12:15 PM 77.0 °F - 68.0 °F 74% 29.96 in 10.0 mi SSE 9.2 mph 16.1 mph N/A   Scattered Clouds
12:35 PM 77.0 °F - 68.0 °F 74% 29.96 in 10.0 mi SE 12.7 mph 20.7 mph N/A   Scattered Clouds
12:55 PM 77.0 °F - 68.0 °F 74% 29.95 in 10.0 mi SE 15.0 mph 21.9 mph N/A   Scattered Clouds
1:15 PM 78.8 °F - 68.0 °F 69% 29.94 in 10.0 mi ESE 17.3 mph 25.3 mph N/A   Clear
1:35 PM 78.8 °F - 68.0 °F 69% 29.94 in 10.0 mi SSE 9.2 mph - N/A   Clear
1:55 PM 80.6 °F 83.2 °F 68.0 °F 65% 29.93 in 10.0 mi SE 16.1 mph 19.6 mph N/A   Clear
2:15 PM 80.6 °F 82.3 °F 64.4 °F 58% 29.92 in 10.0 mi ESE 18.4 mph 24.2 mph N/A   Clear
2:35 PM 80.6 °F 82.3 °F 64.4 °F 58% 29.93 in 10.0 mi SE 19.6 mph 26.5 mph N/A   Clear
2:55 PM 82.4 °F 83.9 °F 64.4 °F 54% 29.93 in 10.0 mi SSE 15.0 mph 26.5 mph N/A   Clear
3:15 PM 82.4 °F 83.9 °F 64.4 °F 54% 29.93 in 10.0 mi SSE 11.5 mph 20.7 mph N/A   Clear
3:35 PM 82.4 °F 83.9 °F 64.4 °F 54% 29.93 in 10.0 mi SSE 16.1 mph 21.9 mph N/A   Clear
3:55 PM 82.4 °F 83.9 °F 64.4 °F 54% 29.94 in 10.0 mi SSE 10.4 mph 18.4 mph N/A   Clear
4:15 PM 84.2 °F 85.6 °F 64.4 °F 51% 29.94 in 10.0 mi South 10.4 mph 18.4 mph N/A   Scattered Clouds
4:35 PM 86.0 °F 87.3 °F 64.4 °F 48% 29.94 in 10.0 mi SSE 9.2 mph - N/A   Scattered Clouds
4:55 PM 84.2 °F 85.6 °F 64.4 °F 51% 29.94 in 10.0 mi SSE 11.5 mph - N/A   Scattered Clouds
5:15 PM 84.2 °F 85.6 °F 64.4 °F 51% 29.94 in 10.0 mi SE 12.7 mph - N/A   Scattered Clouds
5:35 PM 84.2 °F 85.6 °F 64.4 °F 51% 29.95 in 10.0 mi SE 12.7 mph - N/A   Scattered Clouds
5:55 PM 82.4 °F 83.9 °F 64.4 °F 54% 29.94 in 10.0 mi SE 9.2 mph - N/A   Scattered Clouds
6:15 PM 82.4 °F 83.9 °F 64.4 °F 54% 29.94 in 10.0 mi SSW 6.9 mph - N/A Thunderstorm Clear
6:35 PM 82.4 °F 83.9 °F 64.4 °F 54% 29.94 in 10.0 mi South 5.8 mph - N/A   Clear
6:55 PM 80.6 °F 82.3 °F 64.4 °F 58% 29.95 in 10.0 mi SSE 5.8 mph - N/A Thunderstorm Clear
7:15 PM 80.6 °F 82.3 °F 64.4 °F 58% 29.96 in 10.0 mi SE 10.4 mph - N/A Thunderstorm Mostly Cloudy
7:35 PM 78.8 °F - 64.4 °F 61% 29.97 in 10.0 mi SE 11.5 mph - N/A Thunderstorm Overcast
7:55 PM 78.8 °F - 64.4 °F 61% 29.97 in 10.0 mi SE 8.1 mph - N/A   Light Drizzle
8:15 PM 78.8 °F - 66.2 °F 65% 29.99 in 10.0 mi SSE 3.5 mph - N/A Thunderstorm Thunderstorm
8:35 PM 68.0 °F - 62.6 °F 83% 30.02 in 10.0 mi West 10.4 mph - N/A Rain Light Rain
8:55 PM 64.4 °F - 62.6 °F 94% 30.04 in 10.0 mi NNW 10.4 mph 16.1 mph N/A Rain Light Rain
9:15 PM 60.8 °F - 59.0 °F 94% 30.07 in 10.0 mi NNW 11.5 mph - N/A   Light Drizzle
9:35 PM 59.0 °F - 57.2 °F 94% 30.09 in 10.0 mi NW 16.1 mph - N/A   Mostly Cloudy
10:15 PM 59.0 °F - 55.4 °F 88% 30.10 in 10.0 mi NW 12.7 mph 18.4 mph N/A   Overcast
10:35 PM 57.2 °F - 53.6 °F 88% 30.12 in 10.0 mi NW 12.7 mph - N/A   Overcast
10:55 PM 55.4 °F - 51.8 °F 88% 30.12 in 10.0 mi NNW 20.7 mph 25.3 mph N/A   Overcast
11:15 PM 55.4 °F - 51.8 °F 88% 30.12 in 10.0 mi NNW 16.1 mph - N/A   Mostly Cloudy
11:35 PM 53.6 °F - 50.0 °F 88% 30.12 in 10.0 mi NNW 16.1 mph 24.2 mph N/A   Scattered Clouds
11:55 PM 53.6 °F - 50.0 °F 88% 30.15 in 10.0 mi NNW 12.7 mph 18.4 mph N/A   Clear